Probability
0 6 90 71 52 19 6 0 10 6 6 6 16 23 42 35 39 29 13 10 6 0 0 0 0 0 0 0 0 0 0 0 0 0 0 0 0 0 0 0 0 0 0
0 6 94 77 52 23 3 6 10 6 6 10 10 19 32 32 23 10 3 6 0 0 0 0 0 0 0 0 0 0 0 0 0 0 0 0 0 0 0 0 0 0 0
0 13 84 81 52 23 3 6 10 6 3 10 10 19 16 16 10 6 6 3 0 0 0 0 0 0 0 0 0 0 0 0 0 0 0 0 0 0 0 0 0 0 0
3 19 29 87 42 19 3 6 10 6 3 6 6 10 13 10 10 6 3 0 0 0 0 0 0 0 0 0 0 0 0 0 0 0 0 0 0 0 0 0 0 0 0
0 6 45 84 35 16 3 6 3 6 6 3 6 3 6 6 3 3 0 0 0 0 0 0 0 0 0 0 0 0 0 0 0 0 0 0 0 0 0 0 0 0 0
6 6 42 71 39 16 3 6 6 6 6 3 0 3 3 3 3 0 0 0 0 0 0 0 0 0 0 0 0 0 0 0 0 0 0 0 0 0 0 0 0 0 0
6 6 39 68 35 19 6 13 10 6 6 0 0 3 3 0 0 0 0 0 0 0 0 0 0 0 0 0 0 0 0 0 0 0 0 0 0 0 0 0 0 0 0
10 10 35 68 42 19 19 16 16 13 6 3 0 0 0 0 0 0 0 0 0 0 0 0 0 0 0 0 0 0 0 0 0 0 0 0 0 0 0 0 0 0 0
10 16 26 16 16 23 23 19 16 23 16 13 3 0 0 0 0 0 0 0 0 0 0 0 0 0 0 0 0 0 0 0 0 0 0 0 0 0 0 0 0 0 0
6 13 3 3 3 3 0 0 10 16 19 13 0 0 0 0 0 0 0 0 0 0 0 0 0 0 0 0 0 0 0 0 0 0 0 0 0 0 0 0 0 0 0
13 6 0 0 0 0 0 0 0 3 10 0 0 0 0 0 0 0 0 0 0 0 0 0 0 0 0 0 0 0 0 0 0 0 0 0 0 0 0 0 0 0 0
6 0 0 0 0 0 0 0 0 0 0 0 0 0 0 0 0 0 0 0 0 0 0 0 0 0 0 0 0 0 0 0 0 0 0 0 0 0 0 0 0 0 0
3 3 0 0 0 0 0 0 0 0 0 0 0 0 0 0 0 0 0 0 0 0 0 0 0 0 0 0 0 0 0 0 0 0 0 0 0 0 0 0 0 0 0
3 3 0 0 0 0 0 0 0 0 0 0 0 0 0 0 0 0 0 0 0 0 0 0 0 0 0 0 0 0 0 0 0 0 0 0 0 0 0 0 0 0 0
6 6 0 0 0 0 0 0 0 0 0 0 0 0 0 0 0 0 0 0 0 0 0 0 0 0 0 0 0 0 0 0 0 0 0 0 0 0 0 0 0 0 0
3 6 6 3 3 0 0 0 0 0 0 0 0 0 0 0 0 0 0 0 0 0 0 0 0 0 0 0 0 0 0 0 0 0 0 0 0 0 0 0 0 0 0
3 6 10 3 3 0 0 0 0 0 0 0 0 0 0 0 0 0 0 0 0 0 0 0 0 0 0 0 0 0 0 0 0 0 0 0 0 0 0 0 0 0 0
3 6 6 3 0 0 0 0 0 0 0 0 0 0 0 0 0 0 0 0 0 0 0 0 0 0 0 0 0 0 0 0 0 0 0 0 0 0 0 0 0 0 0
6 10 6 3 3 3 3 0 0 0 0 0 0 0 0 0 0 0 0 0 0 0 0 0 0 0 0 0 0 0 0 0 0 0 0 0 0 0 0 0 0 0 0
6 6 0 0 3 6 6 0 0 0 0 0 0 0 0 0 0 0 0 0 0 0 0 0 0 0 0 0 0 0 0 0 0 0 0 0 0 0 0 0 0 0 0
3 6 3 3 0 3 3 6 0 0 0 0 0 0 0 0 0 0 0 0 0 0 0 0 0 0 0 0 0 0 0 0 0 0 0 0 0 0 0 0 0 0 0
3 3 3 3 3 3 3 3 0 0 0 0 0 0 0 0 0 0 0 0 0 0 0 0 0 0 0 0 0 0 0 0 0 0 0 0 0 0 0 0 0 0 0
0 0 0 3 3 6 3 0 0 0 0 0 0 0 0 0 0 0 0 0 0 0 0 0 0 0 0 0 0 0 0 0 0 0 0 0 0 0 0 0 0 0 0
0 0 0 0 0 3 0 0 0 0 0 0 0 0 0 0 0 0 0 0 0 0 0 0 0 0 0 0 0 0 0 0 0 0 0 0 0 0 0 0 0 0 0
0 0 0 0 0 0 0 0 0 0 0 0 0 0 0 0 0 0 0 0 0 0 0 0 0 0 0 0 0 0 0 0 0 0 0 0 0 0 0 0 0 0 0
0 0 0 0 0 0 0 0 0 0 0 0 0 0 0 0 0 0 0 0 0 0 0 0 0 0 0 0 0 0 0 0 0 0 0 0 0 0 0 0 0 0 0
Height
5863 5866 5868 5870 5872 5874 5875 5876 5877 5878 5879 5880 5880 5881 5881 5882 5882 5882 5882 5882 5882 5882 5881 5881 5881 5881 5880 5880 5880 5879 5879 5879 5879 5878 5878 5877 5876 5876 5875 5874 5873 5871 5869
5860 5863 5865 5867 5869 5871 5873 5874 5875 5876 5877 5878 5879 5879 5880 5880 5881 5881 5881 5881 5881 5881 5881 5880 5880 5880 5880 5879 5879 5879 5879 5878 5878 5878 5877 5877 5876 5875 5874 5873 5872 5870 5869
5856 5859 5862 5864 5866 5868 5870 5872 5873 5874 5875 5876 5877 5878 5878 5879 5880 5880 5880 5880 5880 5880 5880 5879 5879 5879 5879 5878 5878 5878 5878 5878 5877 5877 5877 5876 5875 5874 5873 5872 5871 5869 5867
5852 5855 5858 5861 5863 5865 5867 5869 5871 5872 5873 5874 5875 5876 5877 5877 5878 5879 5879 5879 5879 5879 5879 5879 5878 5878 5878 5878 5878 5877 5877 5877 5876 5876 5876 5875 5874 5873 5872 5871 5869 5868 5866
5848 5851 5854 5857 5860 5862 5864 5866 5868 5869 5870 5871 5873 5874 5875 5876 5876 5877 5877 5878 5878 5878 5877 5877 5877 5877 5877 5877 5877 5876 5876 5876 5875 5875 5875 5874 5873 5872 5871 5869 5868 5866 5864
5843 5846 5850 5853 5856 5858 5861 5863 5865 5866 5868 5869 5870 5871 5873 5874 5874 5875 5876 5876 5876 5876 5876 5876 5876 5876 5875 5875 5875 5875 5875 5875 5874 5874 5873 5872 5872 5871 5869 5868 5866 5864 5862
5838 5842 5845 5848 5852 5854 5857 5859 5861 5863 5865 5866 5867 5868 5870 5871 5872 5873 5873 5874 5874 5875 5874 5874 5874 5874 5874 5874 5874 5874 5873 5873 5873 5872 5872 5871 5870 5869 5868 5866 5864 5862 5860
5832 5836 5840 5844 5847 5850 5853 5855 5858 5859 5861 5863 5864 5865 5867 5868 5869 5870 5871 5872 5872 5873 5873 5873 5873 5873 5872 5872 5872 5872 5872 5872 5871 5871 5870 5869 5868 5867 5865 5864 5862 5860 5858
5826 5831 5835 5839 5842 5846 5849 5851 5854 5856 5858 5859 5861 5862 5864 5865 5867 5868 5869 5869 5870 5870 5871 5871 5871 5871 5871 5871 5870 5870 5870 5870 5869 5869 5868 5867 5866 5865 5863 5861 5859 5857 5855
5819 5825 5829 5834 5838 5841 5844 5847 5849 5852 5854 5856 5857 5859 5861 5862 5864 5865 5866 5867 5867 5868 5868 5869 5869 5869 5869 5869 5868 5868 5868 5868 5867 5866 5865 5864 5863 5862 5860 5858 5856 5854 5852
5813 5818 5823 5828 5832 5836 5839 5842 5845 5848 5850 5852 5854 5855 5857 5859 5860 5862 5863 5864 5865 5865 5866 5866 5866 5867 5867 5867 5866 5866 5865 5865 5865 5864 5863 5862 5860 5859 5857 5855 5853 5851 5848
5807 5812 5817 5822 5827 5830 5834 5837 5840 5843 5845 5848 5850 5852 5853 5855 5857 5858 5859 5860 5861 5862 5863 5863 5864 5864 5864 5864 5864 5863 5863 5862 5862 5861 5860 5859 5857 5855 5854 5852 5849 5847 5844
5800 5805 5810 5815 5820 5824 5828 5832 5835 5838 5841 5843 5845 5847 5849 5851 5853 5854 5856 5857 5858 5859 5859 5860 5860 5861 5861 5861 5861 5860 5860 5859 5858 5858 5856 5855 5853 5852 5850 5848 5845 5843 5840
5793 5798 5803 5808 5813 5818 5822 5826 5830 5833 5836 5838 5841 5843 5845 5847 5848 5850 5851 5853 5854 5855 5856 5856 5856 5857 5857 5857 5857 5856 5856 5855 5854 5854 5853 5851 5849 5847 5845 5843 5841 5838 5835
5786 5791 5796 5801 5806 5811 5816 5820 5824 5827 5830 5833 5835 5838 5840 5842 5844 5845 5847 5848 5849 5850 5851 5852 5852 5852 5852 5852 5852 5852 5851 5851 5850 5849 5848 5846 5845 5843 5841 5838 5836 5833 5830
5781 5786 5791 5795 5800 5805 5809 5814 5817 5821 5824 5827 5830 5832 5835 5837 5839 5840 5842 5843 5844 5845 5846 5847 5847 5847 5847 5847 5847 5847 5846 5845 5845 5844 5842 5841 5839 5837 5835 5833 5830 5827 5824
5776 5781 5786 5791 5795 5799 5804 5808 5811 5815 5818 5821 5824 5827 5829 5831 5833 5835 5836 5837 5838 5839 5840 5841 5841 5842 5842 5842 5842 5841 5840 5840 5839 5838 5836 5835 5833 5831 5829 5827 5824 5821 5818
5772 5777 5782 5787 5791 5795 5798 5802 5805 5809 5812 5815 5818 5821 5823 5825 5827 5829 5830 5832 5833 5833 5834 5835 5835 5836 5836 5836 5836 5835 5834 5834 5833 5831 5830 5828 5827 5825 5823 5820 5818 5815 5812
5766 5772 5777 5782 5786 5790 5793 5797 5800 5803 5806 5809 5812 5815 5817 5819 5821 5823 5824 5825 5826 5827 5828 5828 5829 5829 5830 5830 5829 5829 5828 5827 5826 5825 5823 5822 5820 5818 5816 5813 5811 5808 5805
5760 5766 5770 5776 5780 5785 5788 5792 5795 5798 5801 5803 5806 5809 5811 5813 5815 5816 5818 5819 5820 5821 5821 5822 5822 5822 5823 5823 5822 5822 5821 5820 5819 5817 5816 5814 5812 5810 5808 5806 5803 5800 5797
5755 5760 5765 5769 5774 5778 5782 5785 5789 5792 5795 5798 5800 5802 5804 5806 5808 5809 5810 5812 5813 5814 5814 5814 5815 5815 5815 5815 5815 5814 5814 5813 5811 5810 5808 5807 5805 5802 5800 5798 5795 5792 5789
5750 5755 5759 5763 5767 5772 5775 5779 5782 5785 5788 5790 5793 5795 5796 5799 5800 5802 5803 5804 5805 5806 5806 5807 5807 5807 5807 5806 5806 5806 5806 5806 5803 5802 5800 5798 5796 5793 5791 5789 5786 5784 5781
5744 5749 5754 5758 5762 5766 5769 5772 5775 5778 5780 5783 5785 5787 5789 5790 5792 5793 5795 5796 5797 5798 5798 5799 5799 5799 5798 5798 5797 5797 5797 5797 5796 5795 5792 5790 5787 5785 5782 5780 5777 5775 5772
5739 5744 5748 5752 5756 5759 5762 5765 5768 5770 5773 5775 5778 5779 5781 5783 5784 5785 5786 5787 5788 5789 5790 5790 5790 5790 5790 5789 5789 5788 5787 5786 5786 5786 5784 5781 5779 5776 5774 5771 5768 5766 5763
5734 5738 5742 5745 5749 5752 5755 5758 5760 5763 5765 5768 5770 5772 5773 5775 5776 5777 5777 5778 5780 5780 5780 5781 5781 5781 5780 5780 5779 5778 5777 5776 5774 5774 5774 5771 5769 5767 5764 5762 5759 5757 5754
5729 5732 5735 5739 5742 5745 5748 5750 5753 5755 5757 5759 5761 5763 5764 5766 5767 5768 5769 5769 5770 5771 5771 5772 5771 5771 5771 5770 5769 5769 5767 5766 5765 5763 5762 5761 5758 5757 5754 5752 5749 5747 5745
Wind_Speed
27 24 21 19 17 15 14 13 12 10 9 8 7 6 6 5 5 5 5 5 5 6 7 7 8 8 8 8 7 6 5 5 5 5 5 6 7 8 10 11 13 14 16
29 26 23 21 19 17 16 14 13 12 10 10 9 8 7 7 6 6 6 6 6 7 7 8 8 8 8 8 7 6 6 5 5 5 6 6 7 8 10 12 14 15 17
30 28 25 23 21 19 18 16 15 13 12 11 10 9 9 8 7 7 7 7 7 7 8 8 8 8 8 8 7 7 6 6 6 6 6 7 8 9 11 13 14 16 17
32 30 27 25 23 21 20 18 16 15 14 13 12 11 10 9 9 8 8 7 7 8 8 8 9 9 8 8 7 7 6 6 6 6 7 8 9 10 12 13 15 16 18
34 31 29 27 25 23 21 20 18 16 15 14 13 13 12 11 10 10 9 9 8 8 8 9 9 9 8 8 7 7 7 7 7 7 8 9 10 11 12 14 15 17 19
36 34 31 29 26 25 23 21 20 18 17 16 15 15 14 13 12 11 10 10 9 9 9 9 9 9 8 8 8 7 7 8 8 8 8 9 10 12 13 15 16 18 20
38 36 33 31 28 26 25 23 21 20 19 18 17 16 15 15 14 13 12 11 10 9 9 9 9 9 8 8 8 8 8 8 8 9 10 10 11 13 14 16 18 19 21
41 38 35 33 31 29 27 24 23 22 20 19 18 18 17 16 15 14 13 12 11 10 10 9 10 9 9 9 8 9 9 9 9 10 10 11 13 14 16 17 19 20 22
44 41 38 35 33 30 28 26 24 23 22 20 19 19 18 17 16 15 14 13 12 11 11 10 10 10 9 9 9 9 10 10 10 11 11 12 14 15 17 18 20 22 23
46 43 40 38 35 32 30 27 26 24 23 21 20 20 19 18 17 16 15 14 13 12 12 11 11 10 10 10 10 10 10 11 11 12 13 14 15 16 18 20 21 23 25
47 45 43 40 37 34 31 29 27 26 24 23 22 21 20 19 19 18 17 16 15 14 13 13 12 12 11 12 12 12 12 13 13 13 14 16 17 18 20 21 23 25 26
48 47 45 43 39 36 33 31 29 27 25 24 23 22 21 20 20 19 18 17 16 16 15 14 14 13 13 13 13 14 14 14 15 16 16 17 18 20 21 23 25 26 28
50 49 47 44 41 38 35 32 30 28 27 25 24 23 22 21 21 21 20 19 18 17 17 16 16 15 15 15 15 16 16 17 17 18 18 19 20 22 23 25 27 28 30
51 51 48 46 43 41 37 34 32 30 28 27 25 24 23 23 22 22 21 21 20 19 19 19 18 18 18 17 18 18 18 19 19 20 21 21 22 24 25 27 29 30 32
52 51 49 47 44 41 39 36 34 32 30 28 26 25 24 24 24 24 23 23 22 22 21 21 20 20 20 20 20 20 21 22 22 23 23 24 25 26 28 29 31 32 34
47 47 47 47 44 41 39 38 36 33 31 30 28 26 26 25 25 25 24 24 24 24 23 23 23 23 23 23 23 23 24 24 25 25 26 27 28 29 30 31 32 34 35
43 45 45 45 42 40 39 39 38 36 34 32 30 28 27 26 26 25 26 26 26 25 25 25 25 25 25 25 26 26 26 27 27 28 29 29 30 31 33 34 35 36 37
40 41 42 43 41 40 40 40 38 37 35 33 31 29 28 27 26 26 26 27 27 27 27 27 27 28 28 28 28 29 29 30 31 31 31 32 33 34 35 36 37 38 38
37 36 37 38 39 40 40 40 38 37 35 34 31 29 29 28 27 26 27 27 28 28 29 29 29 30 30 31 31 32 32 33 33 34 34 35 35 36 37 38 39 40 40
33 33 34 35 36 38 39 39 38 37 35 34 31 30 29 28 27 27 28 28 29 30 30 31 31 32 33 33 33 34 35 35 36 36 37 37 38 39 40 40 41 42 41
30 31 31 32 33 35 37 39 39 38 36 34 33 31 30 29 29 29 29 30 31 31 32 32 33 33 34 35 35 35 36 37 38 39 39 40 41 42 43 43 43 42 41
30 31 31 32 31 31 33 35 35 35 35 34 34 33 32 32 31 31 32 32 32 32 33 33 34 35 36 37 37 37 37 38 38 39 40 42 43 44 44 43 43 42 41
31 31 31 31 31 31 32 34 33 32 32 32 32 32 33 34 34 33 33 34 35 35 35 35 35 36 37 38 39 40 40 39 39 39 41 43 44 43 44 43 42 42 41
32 32 31 31 30 31 31 33 32 32 32 32 33 34 34 35 35 35 35 36 36 36 36 37 38 38 39 40 41 42 42 43 42 42 42 44 44 44 43 43 42 41 41
33 33 33 32 32 31 31 32 32 32 33 34 34 34 35 36 36 37 37 37 37 37 38 39 40 40 41 42 43 43 44 45 46 46 45 44 45 44 43 43 42 42 41
34 33 34 34 34 34 34 34 35 35 35 35 36 36 37 37 37 38 38 38 39 39 39 40 41 42 43 44 44 46 47 47 47 47 46 45 44 43 43 43 42 42 41
Wind_Direction
226 227 228 229 230 231 231 231 232 233 236 239 242 245 248 254 260 268 275 283 291 298 304 307 309 310 312 314 316 319 324 329 335 342 349 352 354 356 356 355 354 353 353
226 226 227 226 227 229 230 230 230 231 233 235 238 240 244 251 257 263 271 279 288 295 300 304 306 307 309 310 311 314 317 320 325 332 338 340 342 346 348 349 349 349 350
225 225 225 225 226 228 229 230 229 230 231 232 235 238 241 247 254 262 269 276 285 292 298 302 305 306 307 308 307 308 312 314 317 323 326 329 334 339 342 344 345 346 346
223 224 224 225 226 228 229 229 229 230 229 230 232 235 239 244 252 260 266 273 280 288 295 300 303 304 304 304 304 305 307 308 310 315 319 325 330 335 338 341 342 343 343
222 223 224 224 226 228 229 228 228 229 228 229 231 234 237 242 248 255 262 269 276 285 293 299 301 301 301 301 302 302 303 305 307 312 317 323 327 331 335 337 338 338 339
220 222 223 224 225 227 228 228 227 227 228 229 230 232 236 240 245 251 259 265 273 281 289 296 299 300 300 301 301 300 301 303 307 311 315 319 323 327 331 332 334 335 335
219 221 222 223 224 226 227 227 226 226 227 229 230 232 235 240 244 249 256 261 269 277 284 291 295 296 297 298 299 298 299 302 306 309 312 316 320 323 326 328 330 332 333
218 220 222 222 223 224 225 225 225 225 227 228 230 231 235 239 243 248 253 258 264 270 277 284 289 291 293 295 296 296 297 299 303 307 311 314 317 320 323 325 328 329 330
218 219 220 220 222 223 223 223 223 224 226 227 229 231 235 238 242 246 250 255 260 264 270 276 281 284 288 290 292 293 295 298 301 304 308 312 315 318 321 323 325 326 327
216 217 219 219 220 221 221 222 222 223 225 227 229 231 234 238 241 244 248 252 257 260 265 270 274 278 281 285 288 290 292 296 299 303 307 311 313 316 318 321 322 323 325
216 216 218 218 219 220 220 220 221 222 224 227 229 231 234 237 240 244 247 251 254 258 262 266 270 273 277 282 286 289 291 294 298 303 306 308 311 313 316 319 320 322 323
214 214 216 216 216 217 217 219 220 221 223 226 228 231 234 237 240 243 246 250 253 257 261 264 268 271 275 280 284 288 291 294 297 301 303 306 309 312 314 317 319 320 321
213 213 212 213 214 214 214 216 218 219 222 225 228 231 234 237 240 243 246 250 253 257 261 264 268 271 274 278 281 285 289 292 295 297 300 303 307 310 312 314 316 317 319
214 213 210 210 211 212 213 214 216 218 221 224 228 231 234 237 241 243 246 250 253 257 261 264 268 271 274 277 280 283 286 289 292 295 298 301 305 307 310 312 314 315 316
212 211 210 209 210 211 212 213 214 217 220 223 227 230 234 237 241 244 247 250 253 256 260 264 267 270 273 276 278 281 283 287 290 293 297 300 303 305 307 309 311 313 314
210 210 211 209 210 210 212 212 214 217 219 222 225 229 233 237 241 244 248 251 254 257 260 263 266 269 271 274 277 280 282 286 289 292 295 297 300 303 305 306 308 310 311
215 213 211 209 209 211 213 215 218 218 220 222 225 228 233 237 241 245 248 251 254 256 259 262 265 268 271 274 276 279 282 285 288 290 292 295 298 301 303 305 306 308 308
220 217 215 214 213 213 216 218 218 219 220 223 225 228 233 237 241 245 249 251 254 256 259 262 264 267 270 274 276 279 281 284 286 288 291 293 296 299 302 303 304 305 305
226 223 219 219 220 217 217 218 218 220 222 224 227 231 235 238 242 247 251 253 256 258 260 262 265 267 270 272 275 278 280 283 285 287 289 291 294 298 300 301 302 303 303
229 230 229 226 225 223 221 222 223 223 225 227 229 234 236 240 244 248 252 255 258 260 262 264 266 267 270 272 275 277 280 282 284 287 288 291 293 296 298 299 300 301 301
229 230 230 229 229 228 227 228 228 227 227 229 231 235 238 242 246 250 255 258 260 262 264 265 267 269 271 272 274 277 280 282 284 285 287 290 292 294 296 297 299 299 299
236 234 235 235 233 233 232 233 233 233 232 233 236 239 242 245 249 253 257 260 262 264 265 266 268 270 272 273 275 277 279 280 283 286 287 290 292 294 295 296 297 297 297
238 237 237 238 239 239 238 238 239 240 238 239 240 243 247 248 251 254 257 260 264 265 266 268 270 271 274 275 276 278 280 278 280 283 286 289 291 292 294 295 295 295 295
240 239 239 240 242 242 244 244 245 244 244 245 247 247 248 251 253 257 259 262 263 264 267 269 271 273 274 276 278 280 282 282 282 284 286 287 289 290 291 292 293 293 293
242 243 243 242 242 243 244 246 248 248 248 249 250 250 252 254 257 259 261 263 265 266 268 269 271 273 276 277 279 280 282 283 285 287 288 288 288 289 290 291 291 292 292
241 243 244 244 245 247 246 247 249 250 251 252 254 255 258 260 262 261 262 265 267 269 270 270 272 275 277 278 280 281 282 284 285 287 288 288 288 289 289 290 291 291 291